Dewpoint
61 53 48 44 50 55 43 34 38 41 42 42 41 48 52 55 55 54 55 60 62 66 68 68 73 73 73 73 72 71 70 70 69 68 68 68 67 66 65 65 65 64 64 65 67 71 70 65 66
44 47 41 40 52 46 41 35 41 43 45 44 47 48 53 55 57 56 55 61 63 64 67 68 74 73 73 73 71 70 70 69 68 68 68 66 66 66 66 67 67 67 67 68 70 71 70 70 71
50 39 35 39 45 44 36 36 37 41 44 48 50 52 53 58 58 56 58 61 62 64 67 70 74 74 72 70 70 70 70 69 67 67 66 66 67 67 68 68 68 68 68 70 72 72 72 71 71
35 32 33 36 40 33 34 36 39 41 42 49 51 52 56 60 57 56 59 59 61 63 63 72 75 74 72 71 70 69 69 68 67 67 66 66 67 67 68 68 68 69 69 71 71 71 71 71 71
34 31 33 31 27 29 34 37 35 42 44 49 52 52 55 59 58 59 58 58 58 60 64 70 75 73 71 70 69 69 68 67 67 66 66 66 66 67 68 68 68 70 70 70 70 70 70 70 70
24 29 30 25 23 28 31 34 35 40 43 50 53 53 55 58 58 57 57 54 58 57 61 70 73 73 71 70 69 69 68 67 66 65 66 66 66 66 66 68 70 71 71 70 69 69 69 69 69
25 28 26 25 25 25 28 37 35 38 37 41 53 53 56 57 56 56 55 53 54 56 61 68 69 70 71 70 69 69 68 67 67 67 67 66 64 64 65 69 71 72 71 70 69 69 69 68 66
29 30 25 26 27 27 29 32 40 38 41 43 51 53 55 57 58 53 51 50 53 55 60 64 66 66 65 65 69 69 67 66 68 67 67 67 66 65 65 69 71 71 70 69 69 68 67 66 67
30 26 21 31 30 29 30 32 36 41 42 45 48 53 57 57 55 52 49 49 50 52 55 60 61 63 61 59 65 68 67 66 67 65 67 67 63 64 60 68 69 71 69 68 68 67 67 68 67
25 23 21 23 31 30 32 36 38 46 45 47 52 54 56 56 52 49 48 48 48 50 52 55 61 59 60 56 62 63 62 62 64 61 64 63 66 65 59 65 69 70 70 68 68 67 67 68 62
20 19 19 19 23 28 34 35 44 45 47 47 49 51 53 53 52 49 48 47 47 49 53 54 62 67 59 57 60 61 63 64 67 68 68 70 68 64 63 63 65 68 70 65 66 64 62 59 59
16 15 20 21 19 24 27 34 42 43 45 49 49 51 52 51 49 48 48 49 48 51 54 57 60 66 69 60 59 60 61 67 66 68 70 71 69 68 69 62 65 65 66 66 65 57 62 60 58
15 13 17 22 24 23 26 32 36 39 45 49 49 50 51 50 49 46 46 48 50 51 58 62 66 71 71 70 67 66 66 66 66 68 69 69 71 70 69 68 66 66 64 64 60 63 62 62 56
14 13 17 18 19 22 21 32 40 41 45 49 49 50 52 52 51 51 50 50 55 57 61 61 62 70 70 73 72 69 70 68 69 70 70 69 71 71 70 69 68 64 64 63 63 62 61 61 56
13 10 11 12 17 19 19 25 40 41 45 48 50 51 53 55 52 54 55 57 57 60 64 67 67 69 72 74 72 70 69 66 68 69 71 70 71 72 71 68 67 65 67 65 65 61 64 62 56
12 13 11 10 13 16 17 21 40 41 46 46 49 52 53 54 55 56 57 61 63 62 66 67 61 68 71 72 73 70 70 70 70 69 69 70 70 70 71 68 66 67 67 65 64 61 59 62 60
15 10 10 9 11 14 19 26 33 36 43 46 49 52 53 55 57 59 58 61 64 68 67 68 68 66 70 72 73 73 74 72 72 72 71 70 69 68 69 68 66 67 67 67 64 63 62 62 62
13 11 11 10 9 11 12 30 33 31 38 47 49 52 53 55 57 60 60 61 65 68 71 70 70 73 71 71 74 72 74 73 71 72 69 69 69 67 68 68 66 68 66 63 64 62 63 62 58
12 12 10 11 12 11 16 20 32 32 34 46 47 51 53 57 59 62 59 59 63 68 71 73 72 74 71 70 69 69 69 71 71 70 70 69 69 67 68 66 65 67 66 66 64 64 63 62 61
6 9 7 8 11 16 19 21 31 34 35 40 51 51 50 55 59 60 60 61 63 67 72 72 73 73 72 71 72 74 70 69 69 70 68 70 69 68 66 67 66 67 66 65 65 64 63 62 62
8 12 14 13 17 17 18 21 28 32 36 37 41 45 50 55 59 60 60 62 63 65 69 72 74 73 72 73 73 74 73 73 70 70 69 69 69 68 68 68 67 68 67 66 66 64 64 61 61
12 12 12 9 18 15 19 19 31 33 36 38 39 43 42 48 54 60 61 62 64 65 68 72 74 74 73 74 72 73 69 68 68 69 70 70 69 68 67 67 66 67 68 67 66 65 64 63 59
12 14 14 14 17 21 18 19 25 30 34 34 39 42 44 44 46 46 56 61 64 65 68 72 74 74 73 73 74 70 71 70 71 70 70 71 71 69 66 67 66 67 67 66 67 64 65 61 61
13 17 15 15 15 19 22 28 26 32 34 36 37 39 43 40 45 52 56 63 62 63 67 71 72 73 73 72 73 73 73 71 69 70 70 70 68 68 68 66 67 68 67 66 66 66 65 64 62
15 23 15 16 16 16 23 23 31 34 33 31 34 38 40 43 45 50 53 57 60 62 66 69 71 72 72 72 72 72 73 73 72 72 70 70 68 69 69 69 69 67 67 67 66 66 65 64 64
18 24 17 22 17 15 21 19 26 33 35 32 30 36 39 44 43 48 53 54 58 62 65 67 70 70 71 71 71 71 73 70 70 71 71 70 69 69 69 68 69 68 67 66 66 65 65 65 64
19 19 20 25 24 23 18 26 33 32 32 31 29 36 37 39 40 44 46 48 51 59 64 65 68 69 70 71 71 71 71 71 71 71 71 69 71 68 69 68 67 67 67 66 66 64 64 64 64
21 19 24 24 28 26 23 29 28 33 32 32 29 31 35 36 40 50 55 51 59 65 65 65 68 68 69 70 70 68 70 70 71 71 70 69 70 69 69 69 68 67 66 66 66 65 65 64 64
18 19 27 30 27 22 22 35 38 35 35 31 29 32 44 47 49 52 56 59 62 63 59 60 65 68 68 68 69 68 69 69 67 66 65 65 67 68 68 68 68 67 66 66 66 64 64 63 63
20 22 30 26 32 29 36 33 36 40 32 34 37 37 38 49 48 48 49 55 56 59 59 58 59 68 69 67 68 68 66 65 65 64 65 67 69 69 68 68 67 66 66 66 64 63 63 62 61
Lifted_Index
5 4 3 2 0 -1 -1 -0 0 0 1 1 1 -0 -1 -2 -2 -1 -1 -1 -1 -2 -2 -2 -3 -3 -3 -3 -2 -1 -1 -1 -0 1 1 2 2 2 3 3 3 3 3 2 0 -1 -1 0 0
6 4 3 1 -0 -1 -1 -0 1 0 0 -0 -0 -1 -1 -2 -2 -2 -1 -1 -1 -1 -2 -2 -3 -4 -3 -2 -2 -1 -1 -0 0 1 1 2 2 2 2 2 2 2 2 1 -1 -2 -1 -1 -1
6 5 3 1 -0 -1 -1 -0 0 0 -0 -1 -1 -1 -2 -2 -2 -2 -1 -1 -1 -1 -2 -3 -4 -4 -3 -2 -2 -1 -1 -0 1 1 1 2 2 1 1 1 1 1 0 -1 -2 -2 -2 -2 -2
6 5 3 0 -1 -1 -0 -0 -0 0 0 -1 -1 -1 -2 -2 -2 -2 -1 -1 -1 -1 -2 -3 -5 -4 -3 -2 -2 -1 -1 -0 1 1 1 1 1 1 1 1 1 -0 -1 -2 -2 -2 -2 -2 -1
5 4 2 0 -0 0 1 0 -0 -0 -0 -1 -1 -2 -2 -2 -2 -2 -1 -1 -1 -1 -2 -3 -5 -4 -3 -2 -2 -1 -1 -0 1 1 1 1 1 1 1 0 -1 -2 -2 -2 -2 -2 -2 -1 -1
5 3 1 -0 -0 1 1 0 -1 -1 -0 -1 -2 -2 -2 -2 -2 -2 -1 -1 -1 -1 -2 -3 -4 -4 -3 -2 -2 -2 -1 -0 0 1 1 1 1 1 0 -1 -2 -3 -3 -2 -2 -2 -1 -1 -0
4 3 1 -0 0 1 1 1 -0 -0 -0 -1 -2 -2 -2 -2 -2 -1 -1 -1 -1 -1 -2 -3 -4 -3 -3 -2 -2 -2 -1 -0 0 0 -0 0 0 0 -0 -2 -3 -4 -3 -3 -2 -2 -1 0 1
4 3 1 -0 -0 1 1 1 0 0 -0 -1 -1 -2 -3 -3 -2 -1 -1 -0 -0 -1 -1 -3 -3 -3 -2 -2 -2 -2 -2 -1 -1 -1 -1 -1 -1 -1 -1 -2 -3 -4 -3 -3 -2 -1 -0 1 2
4 2 1 -0 -0 0 0 0 0 -0 -1 -1 -1 -2 -3 -3 -2 -1 -1 -0 0 -0 -1 -2 -2 -3 -2 -1 -2 -2 -2 -2 -1 -1 -1 -1 -1 -1 -1 -2 -3 -3 -3 -2 -2 -1 -0 1 2
3 2 0 -0 -0 -0 -0 -0 -0 -1 -1 -1 -2 -2 -2 -2 -2 -1 -1 0 0 0 -0 -1 -2 -3 -2 -2 -2 -2 -2 -2 -2 -2 -3 -3 -3 -2 -1 -1 -2 -3 -3 -2 -1 -0 0 1 2
2 1 -0 0 0 0 -0 -1 -1 -1 -1 -1 -1 -1 -2 -2 -2 -1 -0 0 1 0 -0 -1 -2 -3 -3 -3 -2 -3 -3 -4 -4 -4 -4 -4 -4 -3 -2 -1 -2 -2 -2 -1 -0 1 2 2 2
2 1 0 1 1 1 -0 -1 -1 -1 -1 -1 -1 -1 -2 -2 -1 -1 0 0 0 0 -1 -2 -3 -4 -4 -4 -3 -3 -4 -5 -5 -6 -5 -5 -5 -4 -3 -2 -1 -1 -1 -0 1 2 3 3 3
1 1 1 1 2 1 0 -1 -1 -1 -1 -2 -2 -1 -1 -1 -1 -1 -0 -0 -1 -1 -2 -3 -4 -5 -5 -5 -5 -4 -5 -5 -5 -6 -6 -6 -5 -5 -4 -3 -2 -1 -0 1 2 2 3 3 3
1 1 1 2 2 1 1 -1 -2 -2 -2 -2 -2 -2 -2 -2 -2 -1 -1 -1 -2 -2 -3 -3 -4 -5 -6 -7 -6 -5 -5 -5 -5 -5 -5 -5 -5 -5 -4 -3 -2 -1 -0 1 2 2 2 3 3
1 1 1 1 1 1 1 -1 -1 -2 -2 -2 -2 -2 -2 -2 -2 -2 -2 -3 -3 -4 -4 -4 -5 -6 -7 -7 -6 -6 -5 -5 -5 -5 -5 -5 -5 -5 -4 -3 -2 -1 -0 0 1 2 2 2 3
2 2 1 1 1 1 0 -0 -1 -2 -2 -2 -2 -2 -2 -2 -2 -3 -3 -4 -4 -5 -5 -5 -5 -6 -6 -6 -6 -6 -5 -5 -5 -5 -5 -5 -5 -4 -4 -3 -2 -1 -1 -0 1 2 2 2 2
3 2 0 0 0 0 0 -1 -1 -1 -2 -2 -2 -3 -3 -3 -3 -3 -4 -4 -5 -6 -6 -5 -5 -5 -6 -6 -6 -6 -6 -5 -5 -5 -5 -5 -4 -4 -3 -3 -2 -1 -1 -1 0 1 2 2 2
2 1 0 -0 0 0 -0 -1 -0 -0 -1 -2 -2 -3 -3 -3 -3 -3 -4 -4 -5 -6 -6 -6 -6 -6 -6 -5 -6 -6 -6 -6 -5 -5 -4 -4 -4 -3 -3 -2 -2 -2 -1 -1 0 1 1 1 2
1 0 -0 -0 0 0 -0 -1 -0 -0 -1 -2 -3 -3 -3 -3 -4 -3 -3 -3 -4 -5 -6 -7 -7 -6 -6 -6 -6 -6 -6 -5 -5 -5 -4 -4 -4 -3 -2 -2 -2 -2 -1 -1 -0 0 0 1 1
-0 -0 -1 -0 0 0 -0 -1 -1 -0 -1 -2 -3 -3 -3 -4 -4 -4 -3 -3 -4 -5 -6 -7 -7 -7 -6 -6 -6 -6 -5 -5 -5 -5 -5 -4 -4 -3 -2 -2 -2 -2 -2 -1 -1 -0 0 0 1
0 -0 -0 -0 0 0 -0 -1 -1 -0 -0 -1 -2 -3 -3 -4 -4 -4 -4 -4 -4 -5 -6 -7 -8 -7 -7 -6 -6 -6 -6 -5 -5 -5 -5 -5 -4 -4 -3 -2 -2 -2 -2 -2 -1 -1 -1 0 0
2 1 0 -0 -0 -0 -0 -0 -0 -0 0 -0 -1 -2 -2 -3 -4 -4 -5 -5 -5 -5 -6 -7 -8 -8 -7 -7 -6 -6 -6 -6 -5 -5 -5 -5 -5 -4 -4 -3 -3 -3 -3 -2 -2 -2 -1 -0 0
2 1 0 -0 -1 -1 -0 -0 -0 0 0 0 -0 -1 -1 -2 -2 -3 -4 -5 -5 -5 -6 -7 -8 -8 -7 -7 -7 -6 -6 -6 -5 -5 -5 -6 -6 -5 -5 -4 -3 -3 -3 -3 -2 -2 -1 -0 -0
1 0 -0 -1 -1 -1 -1 -1 -0 0 0 -0 -1 -1 -1 -1 -2 -3 -4 -5 -5 -5 -6 -7 -8 -8 -8 -8 -8 -7 -7 -7 -6 -6 -6 -6 -6 -6 -6 -5 -4 -4 -3 -2 -2 -2 -1 -1 -1
-0 -0 -1 -1 -1 -1 -1 -1 -0 -0 0 0 -0 -1 -1 -1 -1 -2 -3 -4 -4 -5 -6 -7 -7 -8 -8 -8 -8 -8 -8 -7 -7 -7 -6 -6 -6 -6 -6 -6 -5 -4 -4 -3 -3 -2 -2 -2 -1
-1 -0 -0 -1 -1 -1 -1 -1 -0 -0 0 1 0 -0 -0 0 -0 -1 -2 -3 -4 -5 -6 -7 -7 -8 -8 -8 -8 -8 -8 -7 -7 -7 -7 -6 -6 -6 -6 -5 -5 -5 -4 -3 -3 -2 -2 -2 -2
-0 -0 -0 -1 -1 -1 -1 -1 -0 -0 -0 1 1 1 1 1 0 -1 -1 -2 -3 -5 -6 -7 -8 -8 -8 -8 -8 -7 -7 -7 -7 -6 -6 -6 -6 -6 -5 -5 -5 -5 -4 -3 -3 -3 -2 -2 -2
-1 -0 -0 -1 -1 -1 -1 -1 -0 -0 -0 0 1 1 1 1 0 -1 -1 -2 -3 -3 -3 -5 -7 -8 -8 -8 -7 -7 -7 -6 -6 -5 -5 -5 -5 -5 -6 -6 -5 -5 -4 -4 -4 -3 -2 -2 -2
-1 -1 -1 -1 -1 -1 -0 -0 -0 -0 -0 0 0 0 0 1 0 -1 -1 -1 -2 -2 -1 -2 -4 -7 -7 -7 -7 -6 -6 -5 -4 -4 -3 -4 -5 -5 -6 -6 -6 -5 -5 -4 -4 -3 -3 -2 -2
-1 -1 -1 -1 -0 -0 -0 -0 -0 -0 0 -0 -0 -0 -0 0 0 -0 -1 -1 -2 -2 -0 0 -2 -5 -7 -7 -6 -6 -5 -4 -3 -3 -3 -4 -5 -6 -6 -7 -6 -5 -5 -4 -4 -3 -2 -2 -2